| time (UTC) | temp F | wind direction | speed MPH | gust MPH | rain 1hr in | rain 24hr in | rain mn in | humidity % | barometer mb |
| 20260506051011 | 61 | 108 | 1.0 | 2.0 | 0.00 | 0.00 | 0.00 | 60 | 1010.0 |
| 20260506050508 | 61 | 144 | 0.0 | 3.0 | 0.00 | 0.00 | 0.00 | 60 | 1010.1 |
| 20260506045004 | 62 | 140 | 0.0 | 2.0 | 0.00 | 0.00 | 0.00 | 59 | 1010.2 |
| 20260506044512 | 62 | 145 | 0.0 | 2.0 | 0.00 | 0.00 | 0.00 | 58 | 1010.2 |
| 20260506044008 | 62 | 136 | 1.0 | 3.0 | 0.00 | 0.00 | 0.00 | 58 | 1010.1 |
| 20260506043504 | 62 | 143 | 1.0 | 4.0 | 0.00 | 0.00 | 0.00 | 59 | 1010.2 |
| 20260506043015 | 62 | 145 | 1.0 | 4.0 | 0.00 | 0.00 | 0.00 | 58 | 1010.2 |
| 20260506042504 | 62 | 143 | 1.0 | 3.0 | 0.00 | 0.00 | 0.00 | 58 | 1010.1 |
| 20260506042008 | 62 | 141 | 1.0 | 3.0 | 0.00 | 0.00 | 0.00 | 58 | 1010.2 |
| 20260506041517 | 62 | 149 | 1.0 | 3.0 | 0.00 | 0.00 | 0.00 | 57 | 1010.2 |
| 20260506041007 | 62 | 140 | 0.0 | 4.0 | 0.00 | 0.00 | 0.00 | 57 | 1010.3 |
| 20260506040508 | 63 | 150 | 0.0 | 4.0 | 0.00 | 0.00 | 0.00 | 56 | 1010.3 |
| 20260506040026 | 62 | 152 | 1.0 | 4.0 | 0.00 | 0.00 | 0.00 | 57 | 1010.1 |
| 20260506035507 | 62 | 129 | 1.0 | 2.0 | 0.00 | 0.00 | 0.00 | 57 | 1010.2 |
| 20260506035008 | 63 | 108 | 1.0 | 4.0 | 0.00 | 0.00 | 0.00 | 57 | 1010.2 |
| 20260506034526 | 63 | 93 | 1.0 | 4.0 | 0.00 | 0.00 | 0.00 | 56 | 1010.2 |
| 20260506034008 | 63 | 141 | 1.0 | 3.0 | 0.00 | 0.00 | 0.00 | 55 | 1010.3 |
| 20260506033502 | 63 | 160 | 0.0 | 3.0 | 0.00 | 0.00 | 0.00 | 55 | 1010.3 |
| 20260506033015 | 64 | 141 | 1.0 | 3.0 | 0.00 | 0.00 | 0.00 | 54 | 1010.2 |
| 20260506032503 | 64 | 149 | 1.0 | 4.0 | 0.00 | 0.00 | 0.00 | 54 | 1010.2 |
| 20260506032007 | 64 | 148 | 1.0 | 4.0 | 0.00 | 0.00 | 0.00 | 54 | 1010.1 |
| 20260506031521 | 64 | 183 | 1.0 | 3.0 | 0.00 | 0.00 | 0.00 | 54 | 1010.1 |
| 20260506031006 | 64 | 92 | 1.0 | 3.0 | 0.00 | 0.00 | 0.00 | 53 | 1010.1 |
| 20260506030506 | 64 | 161 | 1.0 | 4.0 | 0.00 | 0.00 | 0.00 | 53 | 1010.1 |
| 20260506030017 | 64 | 140 | 2.0 | 4.0 | 0.00 | 0.00 | 0.00 | 52 | 1010.1 |
| 20260506025509 | 64 | 153 | 1.0 | 4.0 | 0.00 | 0.00 | 0.00 | 53 | 1010.1 |
| 20260506025006 | 65 | 59 | 1.0 | 4.0 | 0.00 | 0.00 | 0.00 | 52 | 1010.2 |
| 20260506024536 | 65 | 158 | 2.0 | 4.0 | 0.00 | 0.00 | 0.00 | 51 | 1010.2 |
| 20260506024013 | 65 | 155 | 1.0 | 4.0 | 0.00 | 0.00 | 0.00 | 51 | 1010.2 |
| 20260506023513 | 65 | 150 | 1.0 | 5.0 | 0.00 | 0.00 | 0.00 | 51 | 1010.3 |
| 20260506023027 | 65 | 147 | 2.0 | 5.0 | 0.00 | 0.00 | 0.00 | 51 | 1010.2 |
| 20260506022509 | 66 | 133 | 1.0 | 4.0 | 0.00 | 0.00 | 0.00 | 50 | 1010.3 |
| 20260506022002 | 66 | 121 | 2.0 | 4.0 | 0.00 | 0.00 | 0.00 | 50 | 1010.3 |
| 20260506021511 | 66 | 76 | 1.0 | 5.0 | 0.00 | 0.00 | 0.00 | 50 | 1010.3 |
| 20260506021002 | 66 | 134 | 2.0 | 5.0 | 0.00 | 0.00 | 0.00 | 50 | 1010.3 |
| 20260506020502 | 66 | 50 | 1.0 | 4.0 | 0.00 | 0.00 | 0.00 | 51 | 1010.3 |
| 20260506020014 | 66 | 134 | 1.0 | 4.0 | 0.00 | 0.00 | 0.00 | 51 | 1010.3 |
| 20260506015508 | 66 | 131 | 2.0 | 4.0 | 0.00 | 0.00 | 0.00 | 49 | 1010.3 |
| 20260506015006 | 67 | 137 | 1.0 | 3.0 | 0.00 | 0.00 | 0.00 | 49 | 1010.2 |
| 20260506014522 | 66 | 156 | 1.0 | 3.0 | 0.00 | 0.00 | 0.00 | 49 | 1010.1 |
| 20260506014006 | 67 | 108 | 1.0 | 4.0 | 0.00 | 0.00 | 0.00 | 50 | 1010.1 |
| 20260506013507 | 67 | 131 | 1.0 | 4.0 | 0.00 | 0.00 | 0.00 | 49 | 1010.0 |
| 20260506013027 | 67 | 89 | 1.0 | 4.0 | 0.00 | 0.00 | 0.00 | 49 | 1009.9 |
| 20260506012509 | 67 | 141 | 1.0 | 4.0 | 0.00 | 0.00 | 0.00 | 50 | 1009.9 |
| 20260506012009 | 67 | 148 | 1.0 | 4.0 | 0.00 | 0.00 | 0.00 | 49 | 1009.9 |
| 20260506011555 | 67 | 122 | 1.0 | 3.0 | 0.00 | 0.00 | 0.00 | 47 | 1009.8 |
| 20260506011008 | 68 | 95 | 1.0 | 5.0 | 0.00 | 0.00 | 0.00 | 47 | 1009.8 |
| 20260506010506 | 68 | 127 | 2.0 | 5.0 | 0.00 | 0.00 | 0.00 | 46 | 1009.6 |
| 20260506010010 | 68 | 72 | 2.0 | 4.0 | 0.00 | 0.00 | 0.00 | 46 | 1009.5 |
| 20260506005503 | 68 | 125 | 2.0 | 4.0 | 0.00 | 0.00 | 0.00 | 46 | 1009.5 |
| 20260506005006 | 68 | 146 | 1.0 | 4.0 | 0.00 | 0.00 | 0.00 | 46 | 1009.5 |
| 20260506004519 | 68 | 73 | 2.0 | 4.0 | 0.00 | 0.00 | 0.00 | 45 | 1009.5 |
| 20260506004007 | 68 | 144 | 2.0 | 4.0 | 0.00 | 0.00 | 0.00 | 46 | 1009.4 |
| 20260506003509 | 68 | 138 | 2.0 | 4.0 | 0.00 | 0.00 | 0.00 | 45 | 1009.3 |
| 20260506003022 | 69 | 113 | 2.0 | 4.0 | 0.00 | 0.00 | 0.00 | 44 | 1009.2 |
| 20260506002509 | 68 | 58 | 1.0 | 4.0 | 0.00 | 0.00 | 0.00 | 46 | 1009.3 |
| 20260506002009 | 69 | 174 | 2.0 | 4.0 | 0.00 | 0.00 | 0.00 | 45 | 1009.2 |
| 20260506001524 | 69 | 103 | 1.0 | 3.0 | 0.00 | 0.00 | 0.00 | 46 | 1009.1 |
| 20260506001006 | 69 | 160 | 1.0 | 3.0 | 0.00 | 0.00 | 0.00 | 46 | 1009.1 |
| 20260506000514 | 69 | 148 | 2.0 | 4.0 | 0.00 | 0.00 | 0.00 | 45 | 1009.1 |
| 20260506000045 | 69 | 135 | 1.0 | 4.0 | 0.00 | 0.00 | 0.00 | 45 | 1009.1 |
| 20260505235509 | 69 | 159 | 2.0 | 4.0 | 0.00 | 0.00 | 0.00 | 46 | 1009.1 |
| 20260505235011 | 69 | 143 | 1.0 | 3.0 | 0.00 | 0.00 | 0.00 | 44 | 1009.1 |
| 20260505234526 | 70 | 121 | 2.0 | 3.0 | 0.00 | 0.00 | 0.00 | 45 | 1009.1 |
| 20260505234005 | 69 | 130 | 1.0 | 4.0 | 0.00 | 0.00 | 0.00 | 45 | 1008.9 |
| 20260505233506 | 70 | 115 | 2.0 | 4.0 | 0.00 | 0.00 | 0.00 | 44 | 1008.9 |
| 20260505233017 | 70 | 131 | 1.0 | 4.0 | 0.00 | 0.00 | 0.00 | 45 | 1009.0 |
| 20260505232512 | 70 | 117 | 2.0 | 4.0 | 0.00 | 0.00 | 0.00 | 44 | 1008.9 |
| 20260505232009 | 70 | 146 | 1.0 | 3.0 | 0.00 | 0.00 | 0.00 | 44 | 1008.9 |
| 20260505231521 | 70 | 141 | 1.0 | 3.0 | 0.00 | 0.00 | 0.00 | 44 | 1008.9 |
| 20260505231006 | 69 | 143 | 1.0 | 3.0 | 0.00 | 0.00 | 0.00 | 45 | 1008.9 |
| 20260505230509 | 69 | 144 | 0.0 | 2.0 | 0.00 | 0.00 | 0.00 | 45 | 1008.9 |
| 20260505230047 | 70 | 119 | 1.0 | 3.0 | 0.00 | 0.00 | 0.00 | 44 | 1008.9 |
| 20260505225518 | 70 | 132 | 1.0 | 3.0 | 0.00 | 0.00 | 0.00 | 43 | 1008.9 |
| 20260505225009 | 70 | 134 | 1.0 | 3.0 | 0.00 | 0.00 | 0.00 | 44 | 1008.7 |
| 20260505224536 | 70 | 155 | 1.0 | 4.0 | 0.00 | 0.00 | 0.00 | 42 | 1008.7 |
| 20260505224011 | 70 | 131 | 2.0 | 4.0 | 0.00 | 0.00 | 0.00 | 42 | 1008.7 |
| 20260505223511 | 70 | 141 | 1.0 | 5.0 | 0.00 | 0.00 | 0.00 | 43 | 1008.7 |
| 20260505223016 | 70 | 141 | 1.0 | 5.0 | 0.00 | 0.00 | 0.00 | 42 | 1008.7 |
| 20260505222510 | 71 | 138 | 1.0 | 4.0 | 0.00 | 0.00 | 0.00 | 43 | 1008.7 |
| 20260505222007 | 71 | 145 | 1.0 | 9.0 | 0.00 | 0.00 | 0.00 | 43 | 1008.6 |
| 20260505221521 | 71 | 78 | 2.0 | 9.0 | 0.00 | 0.00 | 0.00 | 41 | 1008.6 |
| 20260505221004 | 71 | 146 | 2.0 | 8.0 | 0.00 | 0.00 | 0.00 | 42 | 1008.6 |
| 20260505220508 | 71 | 96 | 2.0 | 6.0 | 0.00 | 0.00 | 0.00 | 42 | 1008.5 |
| 20260505220019 | 71 | 149 | 2.0 | 6.0 | 0.00 | 0.00 | 0.00 | 43 | 1008.5 |
| 20260505215511 | 71 | 101 | 2.0 | 6.0 | 0.00 | 0.00 | 0.00 | 42 | 1008.5 |
| 20260505215007 | 71 | 141 | 1.0 | 5.0 | 0.00 | 0.00 | 0.00 | 42 | 1008.4 |
| 20260505214529 | 71 | 163 | 3.0 | 5.0 | 0.00 | 0.00 | 0.00 | 42 | 1008.5 |
| 20260505214010 | 71 | 111 | 2.0 | 7.0 | 0.00 | 0.00 | 0.00 | 43 | 1008.5 |
| 20260505213510 | 72 | 138 | 1.0 | 7.0 | 0.00 | 0.00 | 0.00 | 42 | 1008.3 |
| 20260505213026 | 72 | 130 | 2.0 | 6.0 | 0.00 | 0.00 | 0.00 | 41 | 1008.3 |
| 20260505212510 | 72 | 97 | 3.0 | 7.0 | 0.00 | 0.00 | 0.00 | 42 | 1008.3 |
| 20260505212013 | 72 | 149 | 3.0 | 8.0 | 0.00 | 0.00 | 0.00 | 41 | 1008.2 |
| 20260505211529 | 72 | 43 | 2.0 | 8.0 | 0.00 | 0.00 | 0.00 | 43 | 1008.2 |
| 20260505211004 | 73 | 94 | 2.0 | 7.0 | 0.00 | 0.00 | 0.00 | 41 | 1008.2 |
| 20260505210506 | 73 | 128 | 3.0 | 8.0 | 0.00 | 0.00 | 0.00 | 39 | 1008.2 |
| 20260505210023 | 73 | 117 | 3.0 | 8.0 | 0.00 | 0.00 | 0.00 | 38 | 1008.3 |
| 20260505205506 | 73 | 184 | 4.0 | 8.0 | 0.00 | 0.00 | 0.00 | 37 | 1008.1 |
| 20260505205008 | 73 | 139 | 4.0 | 8.0 | 0.00 | 0.00 | 0.00 | 35 | 1008.0 |
| 20260505204523 | 74 | 152 | 3.0 | 7.0 | 0.00 | 0.00 | 0.00 | 36 | 1007.9 |
| 20260505204009 | 74 | 148 | 3.0 | 7.0 | 0.00 | 0.00 | 0.00 | 35 | 1008.2 |
| 20260505203514 | 74 | 181 | 3.0 | 6.0 | 0.00 | 0.00 | 0.00 | 34 | 1008.2 |
| 20260505203026 | 73 | 64 | 2.0 | 6.0 | 0.00 | 0.00 | 0.00 | 36 | 1008.2 |
| 20260505202510 | 74 | 143 | 2.0 | 8.0 | 0.00 | 0.00 | 0.00 | 35 | 1008.2 |
| 20260505202007 | 75 | 177 | 3.0 | 8.0 | 0.00 | 0.00 | 0.00 | 34 | 1008.2 |
| 20260505201531 | 75 | 170 | 3.0 | 7.0 | 0.00 | 0.00 | 0.00 | 36 | 1008.2 |
| 20260505201011 | 74 | 122 | 2.0 | 8.0 | 0.00 | 0.00 | 0.00 | 35 | 1008.1 |
| 20260505200512 | 74 | 193 | 2.0 | 8.0 | 0.00 | 0.00 | 0.00 | 36 | 1008.0 |
| 20260505200026 | 75 | 145 | 2.0 | 5.0 | 0.00 | 0.00 | 0.00 | 35 | 1008.1 |
| 20260505195504 | 75 | 143 | 2.0 | 5.0 | 0.00 | 0.00 | 0.00 | 34 | 1008.2 |
| 20260505195008 | 75 | 136 | 2.0 | 8.0 | 0.00 | 0.00 | 0.00 | 35 | 1008.2 |
| 20260505194526 | 73 | 90 | 3.0 | 8.0 | 0.00 | 0.00 | 0.00 | 36 | 1008.5 |
| 20260505194011 | 74 | 158 | 4.0 | 7.0 | 0.00 | 0.00 | 0.00 | 37 | 1008.5 |
| 20260505193506 | 74 | 142 | 4.0 | 8.0 | 0.00 | 0.00 | 0.00 | 35 | 1008.6 |
| 20260505193025 | 75 | 149 | 2.0 | 8.0 | 0.00 | 0.00 | 0.00 | 34 | 1008.6 |
| 20260505192512 | 74 | 75 | 4.0 | 6.0 | 0.00 | 0.00 | 0.00 | 36 | 1008.7 |
| 20260505192008 | 75 | 129 | 2.0 | 6.0 | 0.00 | 0.00 | 0.00 | 37 | 1008.7 |
| 20260505191527 | 75 | 139 | 3.0 | 8.0 | 0.00 | 0.00 | 0.00 | 35 | 1008.8 |
| 20260505191007 | 75 | 127 | 3.0 | 11.0 | 0.00 | 0.00 | 0.00 | 34 | 1008.8 |
| 20260505190507 | 75 | 171 | 3.0 | 11.0 | 0.00 | 0.00 | 0.00 | 36 | 1008.8 |
| 20260505190036 | 75 | 134 | 2.0 | 6.0 | 0.00 | 0.00 | 0.00 | 39 | 1008.8 |
| 20260505185514 | 74 | 97 | 2.0 | 7.0 | 0.00 | 0.00 | 0.00 | 36 | 1008.9 |
| 20260505185009 | 73 | 146 | 3.0 | 7.0 | 0.00 | 0.00 | 0.00 | 38 | 1008.9 |
| 20260505184533 | 75 | 68 | 3.0 | 7.0 | 0.00 | 0.00 | 0.00 | 36 | 1009.0 |
| 20260505184006 | 75 | 143 | 3.0 | 10.0 | 0.00 | 0.00 | 0.00 | 36 | 1009.2 |
| 20260505183508 | 75 | 68 | 4.0 | 10.0 | 0.00 | 0.00 | 0.00 | 35 | 1009.2 |
| 20260505183021 | 75 | 151 | 3.0 | 7.0 | 0.00 | 0.00 | 0.00 | 38 | 1009.1 |
| 20260505182510 | 75 | 150 | 3.0 | 8.0 | 0.00 | 0.00 | 0.00 | 38 | 1009.0 |
| 20260505182014 | 75 | 76 | 3.0 | 8.0 | 0.00 | 0.00 | 0.00 | 38 | 1009.1 |
| 20260505181526 | 74 | 199 | 2.0 | 6.0 | 0.00 | 0.00 | 0.00 | 40 | 1009.2 |
| 20260505181008 | 74 | 125 | 2.0 | 7.0 | 0.00 | 0.00 | 0.00 | 41 | 1009.2 |
| 20260505180509 | 73 | 129 | 3.0 | 7.0 | 0.00 | 0.00 | 0.00 | 42 | 1009.4 |
| 20260505180037 | 74 | 189 | 2.0 | 6.0 | 0.00 | 0.00 | 0.00 | 41 | 1009.4 |
| 20260505175509 | 75 | 162 | 2.0 | 7.0 | 0.00 | 0.00 | 0.00 | 40 | 1009.5 |
| 20260505175005 | 75 | 132 | 3.0 | 7.0 | 0.00 | 0.00 | 0.00 | 39 | 1009.5 |
| 20260505174514 | 75 | 103 | 3.0 | 6.0 | 0.00 | 0.00 | 0.00 | 41 | 1009.3 |
| 20260505174005 | 74 | 147 | 2.0 | 8.0 | 0.00 | 0.00 | 0.00 | 41 | 1009.5 |
| 20260505173507 | 75 | 207 | 3.0 | 9.0 | 0.00 | 0.00 | 0.00 | 38 | 1009.5 |
| 20260505173018 | 74 | 30 | 4.0 | 9.0 | 0.00 | 0.00 | 0.00 | 38 | 1009.5 |
| 20260505172505 | 74 | 139 | 3.0 | 7.0 | 0.00 | 0.00 | 0.00 | 38 | 1009.4 |
| 20260505172008 | 75 | 148 | 3.0 | 6.0 | 0.00 | 0.00 | 0.00 | 40 | 1009.3 |
| 20260505171524 | 73 | 197 | 3.0 | 6.0 | 0.00 | 0.00 | 0.00 | 42 | 1009.7 |
| 20260505171009 | 74 | 136 | 2.0 | 9.0 | 0.00 | 0.00 | 0.00 | 42 | 1009.7 |
| 20260505170510 | 74 | 210 | 3.0 | 9.0 | 0.00 | 0.00 | 0.00 | 39 | 1009.6 |
| 20260505170026 | 74 | 132 | 3.0 | 7.0 | 0.00 | 0.00 | 0.00 | 40 | 1009.7 |
| 20260505165506 | 73 | 208 | 3.0 | 7.0 | 0.00 | 0.00 | 0.00 | 39 | 1009.7 |
| 20260505165009 | 73 | 86 | 4.0 | 7.0 | 0.00 | 0.00 | 0.00 | 41 | 1009.8 |
| 20260505164528 | 73 | 217 | 3.0 | 6.0 | 0.00 | 0.00 | 0.00 | 44 | 1009.8 |
| 20260505164011 | 73 | 235 | 3.0 | 5.0 | 0.00 | 0.00 | 0.00 | 41 | 1009.8 |
| 20260505163504 | 74 | 103 | 2.0 | 8.0 | 0.00 | 0.00 | 0.00 | 44 | 1010.0 |
| 20260505163017 | 74 | 144 | 2.0 | 8.0 | 0.00 | 0.00 | 0.00 | 43 | 1009.9 |
| 20260505162505 | 74 | 133 | 2.0 | 5.0 | 0.00 | 0.00 | 0.00 | 42 | 1010.0 |
| 20260505162006 | 74 | 153 | 2.0 | 6.0 | 0.00 | 0.00 | 0.00 | 44 | 1010.1 |
| 20260505161520 | 74 | 75 | 2.0 | 6.0 | 0.00 | 0.00 | 0.00 | 44 | 1010.1 |
| 20260505161006 | 73 | 79 | 3.0 | 6.0 | 0.00 | 0.00 | 0.00 | 44 | 1010.3 |
| 20260505160510 | 73 | 60 | 3.0 | 6.0 | 0.00 | 0.00 | 0.00 | 44 | 1010.3 |
| 20260505153028 | 72 | 129 | 2.0 | 5.0 | 0.00 | 0.00 | 0.00 | 48 | 1010.5 |
| 20260505152513 | 72 | 161 | 1.0 | 4.0 | 0.00 | 0.00 | 0.00 | 48 | 1010.6 |
| 20260505152017 | 71 | 141 | 2.0 | 5.0 | 0.00 | 0.00 | 0.00 | 51 | 1010.6 |
| 20260505151516 | 71 | 200 | 2.0 | 5.0 | 0.00 | 0.00 | 0.00 | 50 | 1010.6 |
| 20260505151009 | 71 | 145 | 1.0 | 5.0 | 0.00 | 0.00 | 0.00 | 49 | 1010.7 |
| 20260505150507 | 71 | 204 | 2.0 | 9.0 | 0.00 | 0.00 | 0.00 | 49 | 1010.7 |
| 20260505140510 | 69 | 199 | 2.0 | 5.0 | 0.00 | 0.00 | 0.00 | 50 | 1010.9 |
| 20260505125010 | 64 | 169 | 2.0 | 5.0 | 0.00 | 0.00 | 0.00 | 56 | 1010.7 |
| 20260505124532 | 64 | 176 | 2.0 | 5.0 | 0.00 | 0.00 | 0.00 | 58 | 1010.6 |
| 20260505124006 | 63 | 167 | 2.0 | 4.0 | 0.00 | 0.00 | 0.00 | 59 | 1010.7 |
| 20260505123508 | 63 | 198 | 1.0 | 3.0 | 0.00 | 0.00 | 0.00 | 62 | 1010.7 |
| 20260505123021 | 62 | 212 | 1.0 | 7.0 | 0.00 | 0.00 | 0.00 | 61 | 1010.6 |
| 20260505122510 | 61 | 179 | 2.0 | 7.0 | 0.00 | 0.00 | 0.00 | 61 | 1010.8 |
| 20260505122007 | 61 | 79 | 2.0 | 5.0 | 0.00 | 0.00 | 0.00 | 63 | 1010.8 |
| 20260505121532 | 61 | 221 | 1.0 | 3.0 | 0.00 | 0.00 | 0.00 | 63 | 1010.7 |
| 20260505121007 | 60 | 202 | 1.0 | 3.0 | 0.00 | 0.00 | 0.00 | 67 | 1010.7 |
| 20260505120515 | 59 | 120 | 1.0 | 3.0 | 0.00 | 0.00 | 0.00 | 67 | 1010.7 |
| 20260505120029 | 59 | 216 | 1.0 | 2.0 | 0.00 | 0.00 | 0.00 | 69 | 1010.7 |
| 20260505115511 | 59 | 155 | 1.0 | 3.0 | 0.00 | 0.00 | 0.00 | 67 | 1010.8 |
| 20260505115016 | 59 | 212 | 1.0 | 3.0 | 0.00 | 0.00 | 0.00 | 67 | 1010.8 |
| 20260505114526 | 58 | 207 | 1.0 | 3.0 | 0.00 | 0.00 | 0.00 | 67 | 1010.7 |
| 20260505114012 | 58 | 153 | 1.0 | 3.0 | 0.00 | 0.00 | 0.00 | 68 | 1010.7 |
| 20260505113509 | 58 | 184 | 1.0 | 3.0 | 0.00 | 0.00 | 0.00 | 68 | 1010.6 |
| 20260505113030 | 58 | 94 | 1.0 | 3.0 | 0.00 | 0.00 | 0.00 | 69 | 1010.4 |
| 20260505112507 | 58 | 143 | 1.0 | 3.0 | 0.00 | 0.00 | 0.00 | 68 | 1010.3 |
| 20260505112007 | 57 | 205 | 1.0 | 3.0 | 0.00 | 0.00 | 0.00 | 70 | 1010.3 |
| 20260505111529 | 57 | 138 | 1.0 | 3.0 | 0.00 | 0.00 | 0.00 | 70 | 1010.3 |
| 20260505111006 | 57 | 218 | 1.0 | 3.0 | 0.00 | 0.00 | 0.00 | 69 | 1010.4 |
| 20260505110508 | 56 | 198 | 1.0 | 3.0 | 0.00 | 0.00 | 0.00 | 70 | 1010.4 |
| 20260505102008 | 55 | 213 | 1.0 | 3.0 | 0.00 | 0.00 | 0.00 | 75 | 1010.3 |
| 20260505101528 | 55 | 235 | 1.0 | 3.0 | 0.00 | 0.00 | 0.00 | 75 | 1010.1 |
| 20260505101008 | 55 | 233 | 1.0 | 3.0 | 0.00 | 0.00 | 0.00 | 75 | 1010.0 |
| 20260505100507 | 54 | 219 | 1.0 | 2.0 | 0.00 | 0.00 | 0.00 | 76 | 1009.9 |
| 20260505100033 | 54 | 224 | 1.0 | 2.0 | 0.00 | 0.00 | 0.00 | 78 | 1010.0 |
| 20260505095508 | 53 | 219 | 0.0 | 1.0 | 0.00 | 0.00 | 0.00 | 77 | 1010.0 |
| 20260505095008 | 53 | 141 | 0.0 | 2.0 | 0.00 | 0.00 | 0.00 | 77 | 1010.0 |
| 20260505094524 | 54 | 135 | 0.0 | 2.0 | 0.00 | 0.00 | 0.00 | 76 | 1010.0 |
| 20260505094011 | 54 | 203 | 0.0 | 1.0 | 0.00 | 0.00 | 0.00 | 77 | 1010.0 |
| 20260505093510 | 54 | 217 | 0.0 | 1.0 | 0.00 | 0.00 | 0.00 | 77 | 1009.9 |
| 20260505093030 | 54 | 195 | 0.0 | 2.0 | 0.00 | 0.00 | 0.00 | 77 | 1009.9 |
| 20260505092511 | 54 | 172 | 0.0 | 2.0 | 0.00 | 0.00 | 0.00 | 78 | 1009.8 |
| 20260505092013 | 54 | 152 | 0.0 | 3.0 | 0.00 | 0.00 | 0.00 | 77 | 1009.9 |
| 20260505091533 | 54 | 143 | 1.0 | 3.0 | 0.00 | 0.00 | 0.00 | 77 | 1009.8 |
| 20260505091012 | 54 | 138 | 1.0 | 4.0 | 0.00 | 0.00 | 0.00 | 78 | 1009.3 |
| 20260505090508 | 54 | 168 | 2.0 | 4.0 | 0.00 | 0.00 | 0.00 | 78 | 1009.4 |
| 20260505090021 | 54 | 146 | 1.0 | 5.0 | 0.00 | 0.00 | 0.00 | 78 | 1009.5 |
| 20260505085507 | 54 | 117 | 1.0 | 6.0 | 0.00 | 0.00 | 0.00 | 76 | 1010.0 |
| 20260505085013 | 56 | 170 | 2.0 | 6.0 | 0.00 | 0.00 | 0.00 | 71 | 1009.9 |
| 20260505084526 | 57 | 202 | 2.0 | 4.0 | 0.00 | 0.00 | 0.00 | 67 | 1010.0 |
| 20260505084011 | 57 | 217 | 2.0 | 5.0 | 0.00 | 0.00 | 0.00 | 65 | 1009.9 |
| 20260505083509 | 57 | 236 | 1.0 | 5.0 | 0.00 | 0.00 | 0.00 | 64 | 1009.9 |
| 20260505083009 | 57 | 167 | 1.0 | 5.0 | 0.00 | 0.00 | 0.00 | 65 | 1009.9 |
| 20260505082503 | 56 | 222 | 1.0 | 5.0 | 0.00 | 0.00 | 0.00 | 64 | 1010.1 |
| 20260505082004 | 56 | 219 | 2.0 | 4.0 | 0.00 | 0.00 | 0.00 | 65 | 1009.9 |
| 20260505081515 | 56 | 223 | 1.0 | 4.0 | 0.00 | 0.00 | 0.00 | 65 | 1009.8 |
| 20260505081005 | 55 | 223 | 1.0 | 3.0 | 0.00 | 0.00 | 0.00 | 66 | 1009.7 |
| 20260505080504 | 55 | 198 | 1.0 | 3.0 | 0.00 | 0.00 | 0.00 | 65 | 1009.6 |
| 20260505080018 | 55 | 198 | 1.0 | 3.0 | 0.00 | 0.00 | 0.00 | 66 | 1009.6 |
| 20260505075507 | 55 | 215 | 1.0 | 3.0 | 0.00 | 0.00 | 0.00 | 65 | 1009.7 |
| 20260505075009 | 55 | 190 | 2.0 | 3.0 | 0.00 | 0.00 | 0.00 | 65 | 1009.7 |
| 20260505074526 | 55 | 204 | 1.0 | 3.0 | 0.00 | 0.00 | 0.00 | 65 | 1009.6 |
| 20260505074007 | 55 | 211 | 1.0 | 3.0 | 0.00 | 0.00 | 0.00 | 65 | 1009.7 |
| 20260505073509 | 56 | 213 | 1.0 | 3.0 | 0.00 | 0.00 | 0.00 | 64 | 1009.7 |
| 20260505073026 | 55 | 219 | 1.0 | 3.0 | 0.00 | 0.00 | 0.00 | 64 | 1009.6 |
| 20260505072508 | 56 | 220 | 1.0 | 3.0 | 0.00 | 0.00 | 0.00 | 64 | 1009.7 |
| 20260505072009 | 56 | 207 | 1.0 | 2.0 | 0.00 | 0.00 | 0.00 | 64 | 1009.7 |
| 20260505071512 | 56 | 198 | 0.0 | 2.0 | 0.00 | 0.00 | 0.00 | 64 | 1009.7 |
| 20260505071008 | 56 | 204 | 0.0 | 2.0 | 0.00 | 0.00 | 0.00 | 64 | 1009.7 |
| 20260505070506 | 56 | 207 | 0.0 | 2.0 | 0.00 | 0.00 | 0.00 | 64 | 1009.7 |
| 20260505070016 | 56 | 143 | 1.0 | 3.0 | 0.00 | 0.00 | 0.00 | 63 | 1009.6 |
| 20260505065507 | 57 | 221 | 1.0 | 3.0 | 0.00 | 0.00 | 0.00 | 63 | 1009.7 |
| 20260505065012 | 57 | 170 | 1.0 | 4.0 | 0.00 | 0.00 | 0.00 | 62 | 1009.6 |
| 20260505064523 | 57 | 154 | 2.0 | 5.0 | 0.00 | 0.00 | 0.00 | 62 | 1009.7 |
| 20260505064007 | 56 | 203 | 2.0 | 5.0 | 0.00 | 0.00 | 0.00 | 61 | 1009.7 |
| 20260505063507 | 56 | 161 | 2.0 | 4.0 | 0.00 | 0.00 | 0.00 | 61 | 1009.7 |
| 20260505063030 | 56 | 161 | 1.0 | 4.0 | 0.00 | 0.00 | 0.00 | 61 | 1009.8 |
| 20260505062508 | 56 | 195 | 1.0 | 3.0 | 0.00 | 0.00 | 0.00 | 61 | 1009.8 |
| 20260505062006 | 56 | 125 | 0.0 | 5.0 | 0.00 | 0.00 | 0.00 | 61 | 1009.8 |
| 20260505061533 | 56 | 158 | 1.0 | 5.0 | 0.00 | 0.00 | 0.00 | 61 | 1009.8 |
| 20260505061009 | 55 | 202 | 0.0 | 3.0 | 0.00 | 0.00 | 0.00 | 61 | 1009.8 |
| 20260505060511 | 55 | 148 | 1.0 | 4.0 | 0.00 | 0.00 | 0.00 | 60 | 1009.9 |
| 20260505060011 | 55 | 98 | 1.0 | 4.0 | 0.00 | 0.00 | 0.00 | 60 | 1009.9 |
| 20260505055506 | 55 | 149 | 1.0 | 3.0 | 0.00 | 0.00 | 0.00 | 60 | 1009.9 |